GOES 3

Last updated on June 28, 2016, 1:38 a.m. UTC

1 10953U 78062A   16179.59593750  .00000042  00000-0  00000+0 0  9993
2 10953  13.8315 335.0301 0003461 215.1865 181.0594  0.99530296 92415
UTC
Height (km)
Latitude
Longitude
Inclination
Orbital Period
UTC large
Height (km)
Speed (km/s)
/
Latitude / Longitude
Inclination (degrees)
Orbital Period (minutes)
Azimuth
Elevation
Range (km)
Doppler Factor
iOS Compass Heading
iOS Angle

Next 30 passes for location: Hong Kong

Rise time Rise Azimuth (degrees) Set time Set Azimuth (degrees) Duration Max altitude (degrees)

No matching passes for this satellites